GFSNIL_850_spd_102.txt.gz
Wind_Speed
13 17 22 28 34 44 51 48 46 48 44 42 41 44 43 36 36 34 30 26 23 20
19 19 19 25 30 38 48 50 47 43 40 36 31 31 32 36 39 34 30 27 24 27
24 23 22 26 33 37 46 52 47 40 39 40 39 39 36 40 35 31 32 31 31 30
26 25 25 28 32 35 37 34 39 48 47 44 41 38 33 38 40 37 33 33 31 31
28 30 29 28 28 32 33 37 38 39 42 43 37 38 39 40 39 36 33 31 31 36
33 34 34 32 32 33 33 33 34 36 38 44 38 40 40 40 40 42 43 40 37 35
38 36 37 33 32 35 35 34 35 36 37 40 38 39 42 41 38 38 40 42 42 43
38 37 37 37 34 34 35 35 34 35 35 36 37 40 41 39 37 36 38 42 46 46
33 35 36 38 37 36 36 36 33 32 32 30 32 37 37 39 38 37 37 40 42 40
35 34 35 33 37 39 39 37 36 33 32 33 34 33 32 33 35 36 38 39 41 41
37 35 35 33 34 34 38 41 41 38 37 37 38 38 37 36 36 38 36 35 32 33
40 36 35 33 33 37 36 38 40 41 38 38 38 38 36 35 35 37 36 33 28 21
37 37 35 36 36 35 35 37 41 41 41 40 39 40 40 40 38 37 31 24 21 19
37 34 36 37 36 37 37 42 43 41 37 32 31 32 29 30 31 32 31 28 24 19

GFSNIL_850_spd_105.txt.gz
Wind_Speed
16 17 21 21 29 33 43 44 44 44 47 47 43 42 43 38 43 36 32 32 34 34
14 18 18 22 26 32 42 44 44 44 47 50 50 48 45 48 41 42 38 38 32 28
15 14 17 21 25 31 39 45 47 48 47 47 51 52 43 40 39 39 38 40 36 31
20 18 16 17 21 25 25 30 42 49 50 45 46 37 42 33 37 40 38 42 36 32
24 22 21 21 22 22 27 24 37 44 41 42 37 40 35 36 32 30 36 34 31 33
27 27 26 25 23 22 25 27 29 32 37 40 39 36 34 32 32 32 38 37 33 34
30 29 28 28 26 25 26 28 28 31 35 36 37 37 36 33 34 33 33 36 40 39
32 30 29 29 28 27 26 26 28 29 31 32 35 37 38 36 33 35 37 37 38 41
32 31 31 31 31 31 29 29 29 30 29 30 31 30 32 37 34 36 38 40 41 41
32 33 32 31 32 32 32 31 32 32 30 30 30 30 30 31 33 34 37 39 40 40
30 31 33 34 34 33 34 33 33 33 32 31 29 28 28 28 30 32 34 34 36 38
31 31 30 34 34 33 34 36 34 34 33 33 31 32 31 30 32 34 36 36 36 32
30 30 28 30 34 33 32 33 34 34 36 37 37 37 37 35 37 38 37 31 27 24
26 27 29 30 28 31 33 33 33 34 35 35 34 34 34 35 37 38 36 30 25 21

GFSNIL_850_spd_108.txt.gz
Wind_Speed
14 15 13 14 16 32 32 36 34 32 38 40 37 36 37 39 43 42 38 33 35 36
16 16 15 16 17 27 36 41 34 40 36 32 36 40 36 40 42 40 36 33 33 31
15 17 15 15 17 20 25 35 44 46 45 43 43 48 49 46 42 41 41 42 39 38
13 14 16 17 17 17 23 31 41 43 44 44 45 46 51 52 49 45 40 43 41 43
15 13 12 14 18 19 19 23 33 41 41 44 45 46 48 49 48 49 47 46 42 43
17 16 15 15 15 17 17 20 18 24 33 44 46 44 47 50 46 38 33 36 35 40
20 18 17 16 17 16 19 18 21 20 21 35 40 39 42 39 35 33 30 29 30 31
20 20 19 18 17 17 18 19 21 22 23 28 35 38 35 32 31 28 27 28 28 32
21 20 22 22 21 21 20 20 21 24 24 25 30 31 31 31 29 29 29 31 33 35
18 22 22 21 22 23 23 22 23 23 25 27 27 26 25 25 25 30 34 33 35 36
15 22 24 24 23 24 24 25 24 23 24 25 26 26 26 27 28 29 34 36 35 35
26 25 26 26 24 23 25 25 24 24 24 25 26 26 27 26 29 31 33 33 32 30
33 29 26 27 27 22 21 25 25 23 25 28 29 29 29 28 29 31 31 30 27 26
27 28 26 25 29 26 23 21 21 24 27 28 29 31 32 32 32 32 31 29 26 22

GFSNIL_850_spd_111.txt.gz
Wind_Speed
13 13 13 15 15 18 23 29 36 33 34 32 35 38 38 42 45 46 43 39 36 34
14 13 14 11 13 13 21 25 32 37 34 32 33 32 33 39 44 41 37 32 33 33
13 13 13 12 11 17 20 26 29 31 30 32 31 30 29 35 39 40 35 36 37 34
15 15 12 12 13 12 21 23 31 30 31 29 30 33 35 32 33 38 39 41 39 38
15 13 14 13 12 12 13 25 33 34 37 42 39 35 43 48 49 48 45 45 39 38
15 14 12 10 12 14 12 15 25 27 34 36 39 43 40 43 50 52 50 46 43 46
16 16 15 13 12 12 14 14 16 18 28 36 37 42 43 43 46 50 49 49 49 46
13 15 15 16 15 15 15 16 15 15 20 23 29 35 41 40 39 39 43 44 43 38
12 15 18 17 17 16 16 16 17 17 19 18 18 29 38 39 39 43 38 41 31 31
13 15 17 19 21 20 19 19 18 18 19 19 18 21 28 30 30 28 29 28 29 30
12 16 16 18 21 23 22 22 22 20 18 19 19 19 20 20 20 21 21 24 27 29
19 16 16 15 17 20 24 24 24 22 21 21 20 22 23 23 24 25 25 26 29 33
16 22 27 17 13 17 22 26 26 24 23 23 23 23 24 26 28 29 31 32 32 33
11 18 17 21 17 17 20 24 27 28 27 25 25 25 25 26 29 31 33 32 30 27

GFSNIL_850_spd_114.txt.gz
Wind_Speed
19 16 16 16 18 19 21 26 28 31 36 40 44 48 55 49 52 50 45 45 36 27
18 16 14 15 15 15 16 18 22 29 32 38 42 46 46 54 54 48 45 43 43 32
18 15 14 16 14 13 15 13 14 20 29 28 30 34 41 43 42 44 44 44 43 36
16 15 15 14 12 10 12 12 13 18 26 30 29 27 35 32 34 40 40 40 37 36
16 15 16 14 11 10 11 11 14 19 26 30 32 30 27 30 32 32 34 36 36 33
18 18 15 14 12 12 11 13 15 19 30 32 32 28 26 28 31 35 35 39 40 40
17 17 15 12 12 12 13 11 14 17 31 34 34 34 32 33 36 39 37 40 44 41
17 17 18 16 15 13 13 14 14 17 18 23 31 36 35 36 34 39 44 46 46 43
18 19 19 19 18 17 16 16 17 17 18 20 21 21 33 36 41 37 38 42 46 46
16 17 20 21 20 21 20 19 18 18 19 20 21 20 24 25 30 37 43 40 36 43
17 16 17 20 22 22 22 22 22 22 20 20 20 20 22 27 31 31 33 32 33 35
16 19 20 19 20 21 24 24 24 23 22 21 22 21 21 24 27 29 29 27 26 27
13 16 20 23 23 20 20 21 23 22 23 24 23 24 25 25 27 28 29 29 29 29
9 15 19 24 24 20 26 24 23 23 23 24 26 27 27 27 28 30 32 32 32 32

GFSNIL_850_spd_117.txt.gz
Wind_Speed
22 19 17 18 15 18 19 23 29 30 29 33 34 33 44 51 49 53 49 43 37 32
20 18 15 15 14 15 20 21 21 24 28 29 32 35 46 53 49 54 53 49 42 34
19 18 15 15 16 17 17 18 17 17 19 23 31 40 46 49 50 49 53 44 40 37
17 15 15 14 16 15 14 13 12 12 14 17 25 39 44 46 49 55 54 47 42 40
15 14 14 15 13 14 12 8 7 8 11 15 18 26 35 40 45 49 48 48 47 40
15 14 14 14 15 13 13 10 8 7 11 15 19 20 25 33 37 39 45 46 38 35
17 16 17 12 13 13 13 12 8 8 12 16 23 22 23 21 20 24 30 32 32 34
14 14 13 12 13 13 13 13 11 11 13 20 27 31 30 29 30 34 36 34 33 36
15 16 16 16 14 13 13 14 14 14 15 20 30 31 33 29 30 33 34 34 37 40
15 19 18 15 16 16 15 15 15 15 17 18 21 22 30 32 31 30 29 31 35 37
14 17 16 19 17 18 17 17 19 18 17 17 19 19 19 20 24 33 33 36 36 35
3 15 18 19 19 19 19 19 18 17 15 16 19 18 17 19 25 25 27 27 29 31
8 7 15 17 22 20 20 19 20 19 20 18 17 16 19 19 22 25 26 29 30 31
9 10 8 14 18 20 22 21 22 24 22 21 21 19 19 21 21 23 26 27 29 29

GFSNIL_850_spd_120.txt.gz
Wind_Speed
26 28 23 21 21 24 21 23 26 24 24 26 27 29 31 41 46 48 49 49 46 45
26 26 25 22 25 18 20 21 24 25 28 29 27 29 30 40 45 49 50 52 48 45
25 26 21 22 20 20 20 25 25 21 20 23 27 29 32 34 34 54 53 48 52 46
25 23 20 19 20 21 24 23 20 19 19 20 25 28 31 35 40 47 44 56 52 46
21 22 21 19 18 20 20 17 17 16 17 19 22 24 25 33 42 44 46 47 53 52
20 18 19 17 18 20 18 16 14 12 13 14 15 16 19 27 35 38 42 41 52 53
19 19 15 15 19 21 18 16 13 11 11 12 14 14 15 23 26 32 35 46 43 43
11 14 14 16 15 14 14 14 12 10 11 11 18 17 16 16 19 25 30 33 41 46
13 11 13 16 17 15 12 10 11 11 11 13 17 20 21 22 20 23 24 24 22 23
13 13 14 15 14 14 12 10 12 12 12 12 18 20 22 27 21 25 26 27 29 30
7 14 18 18 13 15 13 12 11 11 11 13 14 20 23 26 26 26 26 26 28 31
17 7 15 20 23 12 13 15 14 14 12 12 14 15 18 20 26 28 29 29 29 28
12 18 9 11 19 21 18 14 16 18 17 16 16 15 15 17 19 24 25 26 29 29
5 10 18 12 10 20 23 23 20 20 19 19 18 17 17 19 19 20 24 25 25 24